KI5QWQ Weather Reports


time (UTC)temp
F
wind
direction
speed
knots
gust
knots
rain 1hr
in
rain 24hr
in
rain mn
in
humidity
%
barometer
mb
20260906021234 0 210 0.9 1.7 0.00 0.00 0.00 1014.9
20260906020729 0 210 0.9 1.7 0.00 0.00 0.00 1014.7
20260906020224 0 210 0.9 1.7 0.00 0.00 0.00 1014.7
20260906015724 0 210 0.9 1.7 0.00 0.00 0.00 1014.3
20260906015222 0 210 0.9 1.7 0.00 0.00 0.00 1014.3
20260906014717 0 210 0.9 1.7 0.00 0.00 0.00 1014.3
20260906014213 0 210 0.9 1.7 0.00 0.00 0.00 1014.1
20260906013709 0 354 0.9 1.7 0.00 0.00 0.00 1014.3
20260906013208 0 179 2.6 4.3 0.00 0.00 0.00 1014.2
20260906012703 0 182 1.7 3.5 0.00 0.00 0.00 1014.1
20260906012158 0 182 1.7 3.5 0.00 0.00 0.00 1013.9
20260906011653 0 198 4.3 4.3 0.00 0.00 0.00 1013.9
20260906011148 0 200 0.0 2.6 0.00 0.00 0.00 1013.9
20260906010638 0 150 3.5 6.1 0.00 0.00 0.00 1014.0
20260906010134 0 150 3.5 6.1 0.00 0.00 0.00 1013.9
20260906005633 0 150 3.5 6.1 0.00 0.00 0.00 1013.8
20260906005133 0 150 3.5 6.1 0.00 0.00 0.00 1013.9
20260906004632 0 150 3.5 6.1 0.00 0.00 0.00 1013.9
20260906004127 0 150 3.5 6.1 0.00 0.00 0.00 1013.5
20260906003622 0 150 3.5 6.1 0.00 0.00 0.00 1013.8
20260906003118 0 150 3.5 6.1 0.00 0.00 0.00 1013.8
20260906002613 0 150 3.5 6.1 0.00 0.00 0.00 1013.6
20260906002108 0 195 0.9 1.7 0.00 0.00 0.00 1013.7
20260906001602 0 195 0.9 1.7 0.00 0.00 0.00 1013.8
20260906001057 0 195 0.9 1.7 0.00 0.00 0.00 1013.6
20260906000553 0 195 0.9 1.7 0.00 0.00 0.00 1013.5
20260906000048 0 195 0.9 1.7 0.00 0.00 0.00 1013.7
20260905235547 0 195 0.9 1.7 0.00 0.00 0.00 1013.6
20260905235043 0 195 0.9 1.7 0.00 0.00 0.00 1013.7
20260905234538 0 195 0.9 1.7 0.00 0.00 0.00 1013.2
20260905234033 0 195 0.9 1.7 0.00 0.00 0.00 1013.3
20260905233532 0 195 0.9 1.7 0.00 0.00 0.00 1013.5
20260905233027 0 195 0.9 1.7 0.00 0.00 0.00 1013.3
20260905232523 0 202 0.0 3.5 0.00 0.00 0.00 1013.3
20260905232018 0 202 0.0 3.5 0.00 0.00 0.00 1013.3
20260905231513 0 202 0.0 3.5 0.00 0.00 0.00 1013.3
20260905231010 0 202 0.0 3.5 0.00 0.00 0.00 1013.5
20260905230509 0 202 0.0 3.5 0.00 0.00 0.00 1013.2
20260905230007 0 202 0.0 3.5 0.00 0.00 0.00 1013.5
20260905225502 0 243 0.9 1.7 0.00 0.00 0.00 1013.3
20260905224957 0 195 1.7 2.6 0.00 0.00 0.00 1013.5
20260905224452 0 195 1.7 2.6 0.00 0.00 0.00 1013.2
20260905223951 0 195 1.7 2.6 0.00 0.00 0.00 1013.3
20260905223449 0 195 1.7 2.6 0.00 0.00 0.00 1013.5
20260905222944 0 195 1.7 2.6 0.00 0.00 0.00 1013.3
20260905222444 0 195 1.7 2.6 0.00 0.00 0.00 1013.5
20260905221939 0 164 1.7 2.6 0.00 0.00 0.00 1013.5
20260905221436 0 204 1.7 2.6 0.00 0.00 0.00 1013.5
20260905220932 0 148 1.7 2.6 0.00 0.00 0.00 1013.6
20260905220428 0 289 0.9 1.7 0.00 0.00 0.00 1013.7
20260905215927 0 190 2.6 5.2 0.00 0.00 0.00 1013.6
20260905215422 0 185 1.7 4.3 0.00 0.00 0.00 1013.5
20260905214918 0 185 1.7 4.3 0.00 0.00 0.00 1013.6
20260905214414 0 193 1.7 3.5 0.00 0.00 0.00 1013.6
20260905213908 0 218 0.0 0.0 0.00 0.00 0.00 1013.7
20260905213405 0 0.0 0.0 0.00 0.00 0.00 1013.6
20260905212900 0 0.0 0.0 0.00 0.00 0.00 1013.9
20260905212354 0 0.0 0.0 0.00 0.00 0.00 1013.8
20260905211854 0 0.0 0.0 0.00 0.00 0.00 1014.0
20260905211349 0 212 0.9 1.7 0.00 0.00 0.00 1014.0
20260905210846 0 212 0.9 1.7 0.00 0.00 0.00 1014.0
20260905210345 0 212 0.9 1.7 0.00 0.00 0.00 1014.2
20260905205844 0 212 0.9 1.7 0.00 0.00 0.00 1014.2
20260905205339 0 212 0.9 1.7 0.00 0.00 0.00 1014.4
20260905204838 0 212 0.9 1.7 0.00 0.00 0.00 1014.5
20260905204335 0 212 0.9 1.7 0.00 0.00 0.00 1014.7
20260905203833 0 212 0.9 1.7 0.00 0.00 0.00 1014.7
20260905203330 0 212 0.9 1.7 0.00 0.00 0.00 1014.7
20260905202825 0 212 0.9 1.7 0.00 0.00 0.00 1014.7
20260905202320 0 212 0.9 1.7 0.00 0.00 0.00 1014.8
20260905201815 0 212 0.9 1.7 0.00 0.00 0.00 1014.8
20260905201310 0 254 1.7 4.3 0.00 0.00 0.00 1014.9
20260905200805 0 254 1.7 4.3 0.00 0.00 0.00 1014.7
20260905200301 0 254 1.7 4.3 0.00 0.00 0.00 1014.9
20260905195759 0 240 0.9 2.6 0.00 0.00 0.00 1015.1
20260905195254 0 149 4.3 5.2 0.00 0.00 0.00 1015.3
20260905194749 0 218 1.7 6.1 0.00 0.00 0.00 1015.4
20260905194249 0 312 0.9 1.7 0.00 0.00 0.00 1015.3
20260905193743 0 164 1.7 2.6 0.00 0.00 0.00 1015.4
20260905193238 0 235 2.6 2.6 0.00 0.00 0.00 1015.3
20260905192733 0 235 2.6 2.6 0.00 0.00 0.00 1015.6
20260905192230 0 235 2.6 2.6 0.00 0.00 0.00 1015.7
20260905191729 0 283 3.5 3.5 0.00 0.00 0.00 1015.8
20260905191227 0 193 2.6 3.5 0.00 0.00 0.00 1016.0
20260905190726 0 193 2.6 3.5 0.00 0.00 0.00 1016.3
20260905190225 0 235 1.7 2.6 0.00 0.00 0.00 1016.1
20260905185724 0 235 1.7 2.6 0.00 0.00 0.00 1016.4
20260905185219 0 158 0.0 1.7 0.00 0.00 0.00 1016.2
20260905184719 0 158 0.0 1.7 0.00 0.00 0.00 1016.4
20260905184218 0 229 2.6 3.5 0.00 0.00 0.00 1016.5
20260905183712 0 228 2.6 3.5 0.00 0.00 0.00 1016.6
20260905183208 0 156 1.7 4.3 0.00 0.00 0.00 1016.7
20260905182707 0 156 1.7 4.3 0.00 0.00 0.00 1016.9
20260905182207 0 203 0.0 1.7 0.00 0.00 0.00 1016.8
20260905181702 0 203 0.0 1.7 0.00 0.00 0.00 1016.9
20260905181201 0 203 0.0 1.7 0.00 0.00 0.00 1017.0
20260905180655 0 203 0.0 1.7 0.00 0.00 0.00 1017.1
20260905180152 0 167 2.6 3.5 0.00 0.00 0.00 1017.0
20260905175650 0 93 3.5 4.3 0.00 0.00 0.00 1017.4
20260905175146 0 93 3.5 4.3 0.00 0.00 0.00 1017.3
20260905174641 0 227 2.6 3.5 0.00 0.00 0.00 1017.6
20260905174137 0 227 2.6 4.3 0.00 0.00 0.00 1017.6
20260905173632 0 189 1.7 2.6 0.00 0.00 0.00 1017.6
20260905173128 0 175 2.6 5.2 0.00 0.00 0.00 1017.6
20260905172627 0 198 1.7 4.3 0.00 0.00 0.00 1018.0
20260905172122 0 254 0.9 3.5 0.00 0.00 0.00 1018.1
20260905171618 0 138 3.5 4.3 0.00 0.00 0.00 1017.9
20260905171114 0 155 2.6 3.5 0.00 0.00 0.00 1018.0
20260905170610 0 213 0.9 3.5 0.00 0.00 0.00 1018.0
20260905170105 0 271 0.9 3.5 0.00 0.00 0.00 1018.1
20260905165600 0 329 0.9 2.6 0.00 0.00 0.00 1018.2
20260905165055 0 220 1.7 2.6 0.00 0.00 0.00 1018.2
20260905164549 0 236 0.0 4.3 0.00 0.00 0.00 1018.4
20260905164044 0 235 0.0 0.9 0.00 0.00 0.00 1018.5
20260905163541 0 214 2.6 4.3 0.00 0.00 0.00 1018.3
20260905163036 0 224 0.0 1.7 0.00 0.00 0.00 1018.5
20260905162533 0 227 2.6 7.0 0.00 0.00 0.00 1018.4
20260905162027 0 210 0.9 1.7 0.00 0.00 0.00 1018.3
20260905161526 0 142 0.0 1.7 0.00 0.00 0.00 1018.4
20260905161024 0 297 0.0 1.7 0.00 0.00 0.00 1018.4
20260905160518 0 265 0.9 4.3 0.00 0.00 0.00 1018.1
20260905160018 0 222 1.7 1.7 0.00 0.00 0.00 1018.4
20260905155517 0 230 1.7 3.5 0.00 0.00 0.00 1018.4
20260905155016 0 229 1.7 3.5 0.00 0.00 0.00 1018.2
20260905154511 0 24 1.7 3.5 0.00 0.00 0.00 1018.4
20260905154007 0 229 0.0 3.5 0.00 0.00 0.00 1018.3
20260905153503 0 212 1.7 4.3 0.00 0.00 0.00 1018.3
20260905153002 0 212 0.0 2.6 0.00 0.00 0.00 1018.2
20260905152502 0 304 0.9 3.5 0.00 0.00 0.00 1018.6
20260905151957 0 234 2.6 3.5 0.00 0.00 0.00 1018.2
20260905151452 0 254 1.7 2.6 0.00 0.00 0.00 1018.4
20260905150947 0 241 0.9 2.6 0.00 0.00 0.00 1018.3
20260905150442 0 282 1.7 3.5 0.00 0.00 0.00 1018.3
20260905145938 0 253 1.7 2.6 0.00 0.00 0.00 1018.4
20260905145433 0 239 1.7 2.6 0.00 0.00 0.00 1018.3
20260905144933 0 255 1.7 1.7 0.00 0.00 0.00 1018.2
20260905144428 0 255 1.7 1.7 0.00 0.00 0.00 1018.4
20260905143927 0 282 1.7 4.3 0.00 0.00 0.00 1018.5
20260905143421 0 282 1.7 4.3 0.00 0.00 0.00 1018.6
20260905142921 0 282 1.7 4.3 0.00 0.00 0.00 1018.6
20260905142420 0 230 0.9 0.9 0.00 0.00 0.00 1018.6
20260905141916 0 230 0.9 0.9 0.00 0.00 0.00 1018.6
20260905141411 0 230 0.9 0.9 0.00 0.00 0.00 1018.4
20260905140906 0 230 0.9 0.9 0.00 0.00 0.00 1018.4
20260905140401 0 230 0.9 0.9 0.00 0.00 0.00 1018.3
20260905135900 0 201 0.9 2.6 0.00 0.00 0.00 1018.3
20260905135356 0 195 0.0 3.5 0.00 0.00 0.00 1018.4
20260905134851 0 215 1.7 2.6 0.00 0.00 0.00 1018.5
20260905134350 0 229 1.7 2.6 0.00 0.00 0.00 1018.2
20260905133845 0 167 1.7 1.7 0.00 0.00 0.00 1018.3
20260905133340 0 167 1.7 1.7 0.00 0.00 0.00 1018.1
20260905132839 0 167 1.7 1.7 0.00 0.00 0.00 1018.3
20260905132335 0 164 0.0 0.9 0.00 0.00 0.00 1018.2
20260905131834 0 221 0.0 0.9 0.00 0.00 0.00 1018.1
20260905131330 0 219 0.0 0.0 0.00 0.00 0.00 1017.9
20260905130825 0 216 0.9 1.7 0.00 0.00 0.00 1017.8
20260905130324 0 202 0.0 0.0 0.00 0.00 0.00 1017.8
20260905125820 0 202 0.0 0.0 0.00 0.00 0.00 1017.8
20260905125314 0 217 0.0 0.0 0.00 0.00 0.00 1017.6
20260905124811 0 217 0.0 0.0 0.00 0.00 0.00 1017.8
20260905124307 0 217 0.0 0.9 0.00 0.00 0.00 1017.5
20260905123801 0 217 0.0 0.9 0.00 0.00 0.00 1017.5
20260905123259 0 217 0.0 0.9 0.00 0.00 0.00 1017.4
20260905122758 0 205 0.0 0.9 0.00 0.00 0.00 1017.5
20260905122257 0 117 0.0 0.0 0.00 0.00 0.00 1017.4
20260905121753 0 217 0.0 0.9 0.00 0.00 0.00 1017.4
20260905121249 0 242 0.0 0.0 0.00 0.00 0.00 1017.3
20260905120748 0 124 0.0 0.0 0.00 0.00 0.00 1017.1
20260905120242 0 205 0.0 0.9 0.00 0.00 0.00 1017.2
20260905115737 0 154 0.0 0.0 0.00 0.00 0.00 1016.9
20260905115237 0 176 0.0 0.9 0.00 0.00 0.00 1017.0
20260905114731 0 217 0.0 0.0 0.00 0.00 0.00 1017.1
20260905114230 0 217 0.0 0.0 0.00 0.00 0.00 1017.0
20260905113730 0 195 0.0 0.0 0.00 0.00 0.00 1017.2
20260905113226 0 217 0.0 0.0 0.00 0.00 0.00 1016.9
20260905112725 0 179 0.0 0.9 0.00 0.00 0.00 1017.0
20260905112221 0 179 0.0 0.9 0.00 0.00 0.00 1017.1
20260905111721 0 154 0.0 0.0 0.00 0.00 0.00 1016.9
20260905111215 0 195 0.0 0.0 0.00 0.00 0.00 1016.8
20260905110715 0 309 0.0 0.0 0.00 0.00 0.00 1016.8
20260905110209 0 297 0.0 0.9 0.00 0.00 0.00 1016.8
20260905105705 0 343 0.0 0.9 0.00 0.00 0.00 1016.8
20260905105203 0 230 0.0 0.0 0.00 0.00 0.00 1016.6
20260905104658 0 195 0.0 0.9 0.00 0.00 0.00 1016.8
20260905104154 0 164 0.0 0.9 0.00 0.00 0.00 1016.8
20260905103649 0 205 0.0 0.0 0.00 0.00 0.00 1016.8
20260905103145 0 205 0.0 0.0 0.00 0.00 0.00 1016.8
20260905102641 0 205 0.0 0.0 0.00 0.00 0.00 1016.8
20260905102137 0 205 0.0 0.0 0.00 0.00 0.00 1016.6
20260905101635 0 336 0.0 0.0 0.00 0.00 0.00 1016.8
20260905101134 0 336 0.0 0.0 0.00 0.00 0.00 1016.7
20260905100630 0 336 0.0 0.0 0.00 0.00 0.00 1016.8
20260905100125 0 336 0.0 0.0 0.00 0.00 0.00 1016.8
20260905095619 0 255 0.0 0.0 0.00 0.00 0.00 1016.8
20260905095114 0 255 0.0 0.0 0.00 0.00 0.00 1016.7
20260905094610 0 315 0.0 0.0 0.00 0.00 0.00 1016.6
20260905094108 0 315 0.0 0.0 0.00 0.00 0.00 1016.8
20260905093603 0 309 0.0 0.0 0.00 0.00 0.00 1016.5
20260905093100 0 309 0.0 0.0 0.00 0.00 0.00 1016.5
20260905092559 0 221 0.0 0.9 0.00 0.00 0.00 1016.5
20260905092055 0 247 0.0 1.7 0.00 0.00 0.00 1016.7
20260905091554 0 195 0.0 0.9 0.00 0.00 0.00 1016.6
20260905091049 0 231 0.0 0.9 0.00 0.00 0.00 1016.6
20260905090549 0 120 0.9 1.7 0.00 0.00 0.00 1016.7
20260905090044 0 44 0.0 0.9 0.00 0.00 0.00 1016.9
20260905085542 0 269 0.0 0.0 0.00 0.00 0.00 1016.8
20260905085039 0 217 0.0 0.9 0.00 0.00 0.00 1016.6
20260905084538 0 202 0.0 0.0 0.00 0.00 0.00 1016.7
20260905084033 0 244 0.0 0.9 0.00 0.00 0.00 1016.7
20260905083528 0 309 0.0 0.9 0.00 0.00 0.00 1016.8
20260905083025 0 230 0.0 0.0 0.00 0.00 0.00 1016.8
20260905082520 0 209 0.0 0.9 0.00 0.00 0.00 1016.8
20260905082016 0 230 0.0 0.0 0.00 0.00 0.00 1016.8
20260905081515 0 217 0.0 0.9 0.00 0.00 0.00 1016.7
20260905081015 0 197 0.0 0.9 0.00 0.00 0.00 1016.9
20260905080509 0 205 0.0 1.7 0.00 0.00 0.00 1016.9
20260905080004 0 217 0.0 0.9 0.00 0.00 0.00 1016.9
20260905075457 0 211 0.0 0.9 0.00 0.00 0.00 1016.9
20260905074956 0 138 2.6 2.6 0.00 0.00 0.00 1017.0
20260905074452 0 221 0.0 1.7 0.00 0.00 0.00 1016.9
20260905073948 0 209 0.9 1.7 0.00 0.00 0.00 1016.8
20260905073442 0 168 0.0 1.7 0.00 0.00 0.00 1017.0
20260905072938 0 204 0.9 2.6 0.00 0.00 0.00 1016.8
20260905072432 0 217 0.9 1.7 0.00 0.00 0.00 1016.9
20260905071928 0 156 1.7 2.6 0.00 0.00 0.00 1017.1
20260905071426 0 202 0.9 1.7 0.00 0.00 0.00 1017.1
20260905070924 0 209 0.0 0.9 0.00 0.00 0.00 1017.1
20260905070421 0 195 0.0 1.7 0.00 0.00 0.00 1017.2
20260905065920 0 173 0.0 1.7 0.00 0.00 0.00 1017.2
20260905065419 0 212 0.0 1.7 0.00 0.00 0.00 1017.2
20260905064914 0 284 0.0 0.0 0.00 0.00 0.00 1017.1
20260905064409 0 164 0.0 0.9 0.00 0.00 0.00 1017.2
20260905063909 0 236 0.9 1.7 0.00 0.00 0.00 1017.3
20260905063404 0 213 0.0 1.7 0.00 0.00 0.00 1017.3
20260905062900 0 218 0.9 2.6 0.00 0.00 0.00 1017.3
20260905062354 0 187 0.0 1.7 0.00 0.00 0.00 1017.1
20260905061849 0 230 0.0 2.6 0.00 0.00 0.00 1017.4
20260905061343 0 171 1.7 4.3 0.00 0.00 0.00 1017.3
20260905060838 0 198 0.9 3.5 0.00 0.00 0.00 1017.3
20260905060335 0 181 0.9 1.7 0.00 0.00 0.00 1017.4
20260905055834 0 180 0.0 1.7 0.00 0.00 0.00 1017.5
20260905055329 0 152 1.7 1.7 0.00 0.00 0.00 1017.4
20260905054828 0 204 0.9 1.7 0.00 0.00 0.00 1017.4
20260905054325 0 189 1.7 4.3 0.00 0.00 0.00 1017.4
20260905053824 0 205 0.9 3.5 0.00 0.00 0.00 1017.4
20260905053319 0 216 0.0 1.7 0.00 0.00 0.00 1017.3
20260905052814 0 182 2.6 4.3 0.00 0.00 0.00 1017.3
20260905052313 0 157 0.0 2.6 0.00 0.00 0.00 1017.2
20260905051808 0 232 1.7 2.6 0.00 0.00 0.00 1017.3
20260905051304 0 215 0.0 1.7 0.00 0.00 0.00 1017.5
20260905050801 0 178 1.7 2.6 0.00 0.00 0.00 1017.5
20260905050257 0 180 0.9 1.7 0.00 0.00 0.00 1017.5
20260905045751 0 162 0.0 1.7 0.00 0.01 0.01 1017.5
20260905045247 0 174 0.9 2.6 0.00 0.01 0.01 1017.3
20260905044742 0 193 0.9 2.6 0.00 0.01 0.01 1017.2
20260905044237 0 181 0.9 2.6 0.00 0.01 0.01 1017.4
20260905043735 0 200 0.9 1.7 0.00 0.01 0.01 1017.4
20260905043236 0 152 1.7 2.6 0.00 0.01 0.01 1017.4
20260905042731 0 158 0.9 2.6 0.00 0.01 0.01 1017.2
20260905042230 0 206 0.0 0.9 0.00 0.01 0.01 1017.2
20260905041726 0 206 0.0 2.6 0.00 0.01 0.01 1017.2
20260905041221 0 189 0.9 2.6 0.00 0.01 0.01 1017.2
20260905040716 0 134 0.0 2.6 0.00 0.01 0.01 1017.2
20260905040215 0 184 0.9 1.7 0.00 0.01 0.01 1017.3
20260905035709 0 215 0.9 1.7 0.00 0.01 0.01 1017.3
20260905035206 0 138 1.7 2.6 0.00 0.01 0.01 1017.2
20260905034702 0 230 0.0 0.0 0.00 0.01 0.01 1017.2
20260905034201 0 214 0.0 1.7 0.00 0.01 0.01 1017.1
20260905033700 0 164 0.0 1.7 0.00 0.01 0.01 1017.2
20260905033156 0 176 0.9 1.7 0.00 0.01 0.01 1017.1
20260905032656 0 141 0.0 1.7 0.00 0.01 0.01 1017.1
20260905032156 0 141 2.6 3.5 0.00 0.01 0.01 1017.1
20260905031652 0 173 0.0 0.9 0.00 0.01 0.01 1017.1
20260905031147 0 173 0.0 0.9 0.00 0.01 0.01 1017.1
20260905030642 0 178 0.9 2.6 0.00 0.01 0.01 1017.0
20260905030137 0 229 0.0 0.0 0.00 0.01 0.01 1016.8
20260905025632 0 185 0.0 1.7 0.00 0.01 0.01 1016.8
20260905025128 0 167 0.9 1.7 0.00 0.01 0.01 1016.9
20260905024623 0 186 0.9 2.6 0.00 0.01 0.01 1016.9
20260905024119 0 218 0.0 2.6 0.00 0.01 0.01 1016.8
20260905023614 0 148 0.9 4.3 0.00 0.01 0.01 1016.8
20260905023108 0 161 0.9 3.5 0.00 0.01 0.01 1016.5
20260905022607 0 143 0.9 2.6 0.00 0.01 0.01 1016.5
20260905022103 0 164 0.9 1.7 0.00 0.01 0.01 1016.5
20260905021602 0 188 0.9 4.3 0.00 0.01 0.01 1016.5